Weather in Olshanskoe

Ukraine / Mykolaiv District     47°09′54″N   31°45′28″E
temp.,
°C
wind,
m/s
gust,
m/s
humid.,
%
clouds,
%
prec.,
mm/h
press.,
hPa
HPBL,
m
13 may, thu
thu1300:00+8ese227998 0.0 101214
03:00+7ese228321 0.0 101211
06:00+7se338690 0.0 101255
09:00+13se4560100 0.0 1012609
12:00+17sse4549100 0.0 10111122
15:00+17s4556100 0.2 1011768
18:00+18sse575481 0.3 1010930
21:00+12ssw3475100 0.3 101069
14 may, fri
fri1400:00+11sse337396 0.0 100929
03:00+10sse338012 0.0 100932
06:00+10se3385100 0.0 100844
09:00+16s5767100 0.0 1008638
12:00+20s7956100 0.0 10081053
15:00+21ssw785218 0.0 10081297
18:00+20ssw676289 0.0 1009951
21:00+15ssw597712 0.1 1010233
15 may, sat
sat1500:00+13ssw35927 0.0 101076
03:00+12s33889 0.0 101138
06:00+14s3486100 0.0 1011105
09:00+19sw3566100 0.0 1012531
12:00+23ssw574349 0.0 10122132
15:00+24ssw77410 0.0 10112061
18:00+22s5548100 0.0 1011954
21:00+15ssw227198 0.0 101220
16 may, sun
sun1600:00+14sw117399 0.0 101211
03:00+13ene2274100 0.0 101116
06:00+13ene3477100 0.0 101066
09:00+19ene5662100 0.0 1010412
12:00+24e444877 0.0 10091395
15:00+26ene3337100 0.0 10072320
18:00+25ene334199 0.0 10051454
21:00+16nne6990100 4.2 1005294
17 may, mon
mon1700:00+16n359282 0.2 1003113
03:00+16s4597100 2.4 1003199
06:00+15w2495100 5.1 1002169
09:00+18w228061 7.6 1004505
12:00+23wsw555518 0.1 10041550
15:00+22sw5655100 0.6 1004668
18:00+18ssw8107599 1.4 1006519
21:00+16wsw5987100 2.5 1008287